| time (UTC) | temp F | wind direction | speed MPH | gust MPH | rain 1hr in | rain 24hr in | rain mn in | humidity % | barometer mb |
| 20260906041553 | 49 | 49 | 0.0 | 1.0 | 0.00 | 0.00 | 0.00 | 74 | 1010.7 |
| 20260906040114 | 49 | 71 | 0.0 | 0.0 | 0.00 | 0.00 | 0.00 | 73 | 1010.8 |
| 20260906034602 | 50 | 71 | 0.0 | 2.0 | 0.00 | 0.00 | 0.00 | 70 | 1010.6 |
| 20260906033052 | 51 | 71 | 0.0 | 1.0 | 0.00 | 0.00 | 0.00 | 70 | 1010.4 |
| 20260906031557 | 51 | 73 | 0.0 | 0.0 | 0.00 | 0.00 | 0.00 | 69 | 1010.1 |
| 20260906030053 | 52 | 69 | 0.0 | 2.0 | 0.00 | 0.00 | 0.00 | 68 | 1010.2 |
| 20260906024550 | 53 | 84 | 0.0 | 1.0 | 0.00 | 0.00 | 0.00 | 66 | 1010.3 |
| 20260906023052 | 54 | 86 | 0.0 | 2.0 | 0.00 | 0.00 | 0.00 | 65 | 1010.1 |
| 20260906021601 | 54 | 107 | 0.0 | 2.0 | 0.00 | 0.00 | 0.00 | 63 | 1010.0 |
| 20260906020056 | 56 | 106 | 0.0 | 1.0 | 0.00 | 0.00 | 0.00 | 60 | 1010.0 |
| 20260906014556 | 57 | 114 | 0.0 | 2.0 | 0.00 | 0.00 | 0.00 | 56 | 1010.0 |
| 20260906013048 | 58 | 123 | 0.0 | 2.0 | 0.00 | 0.00 | 0.00 | 55 | 1010.0 |
| 20260906011547 | 59 | 180 | 0.0 | 1.0 | 0.00 | 0.00 | 0.00 | 53 | 1010.1 |
| 20260906010046 | 61 | 360 | 0.0 | 1.0 | 0.00 | 0.00 | 0.00 | 52 | 1010.2 |
| 20260906004547 | 61 | 190 | 0.0 | 1.0 | 0.00 | 0.00 | 0.00 | 47 | 1010.2 |
| 20260906003047 | 62 | 197 | 0.0 | 5.0 | 0.00 | 0.00 | 0.00 | 46 | 1010.2 |
| 20260906001544 | 63 | 169 | 2.0 | 7.0 | 0.00 | 0.00 | 0.00 | 43 | 1010.2 |
| 20260906000044 | 63 | 360 | 1.0 | 8.0 | 0.00 | 0.00 | 0.00 | 43 | 1010.5 |
| 20260905234544 | 64 | 182 | 2.0 | 10.0 | 0.00 | 0.00 | 0.00 | 43 | 1010.3 |
| 20260905233044 | 64 | 216 | 1.0 | 11.0 | 0.00 | 0.00 | 0.00 | 43 | 1010.4 |
| 20260905231542 | 64 | 210 | 2.0 | 5.0 | 0.00 | 0.00 | 0.00 | 43 | 1010.5 |
| 20260905230041 | 64 | 182 | 6.0 | 9.0 | 0.00 | 0.00 | 0.00 | 45 | 1010.5 |
| 20260905224544 | 63 | 196 | 1.0 | 5.0 | 0.00 | 0.00 | 0.00 | 45 | 1010.3 |
| 20260905223044 | 64 | 165 | 3.0 | 11.0 | 0.00 | 0.00 | 0.00 | 44 | 1010.5 |
| 20260905221547 | 65 | 171 | 3.0 | 10.0 | 0.00 | 0.00 | 0.00 | 43 | 1010.5 |
| 20260905220039 | 66 | 248 | 3.0 | 7.0 | 0.00 | 0.00 | 0.00 | 44 | 1010.6 |
| 20260905214539 | 65 | 360 | 1.0 | 5.0 | 0.00 | 0.00 | 0.00 | 46 | 1010.7 |
| 20260905213038 | 66 | 174 | 3.0 | 9.0 | 0.00 | 0.00 | 0.00 | 42 | 1010.8 |
| 20260905211543 | 64 | 172 | 2.0 | 10.0 | 0.00 | 0.00 | 0.00 | 44 | 1010.9 |
| 20260905210046 | 65 | 182 | 3.0 | 12.0 | 0.00 | 0.00 | 0.00 | 48 | 1010.9 |
| 20260905204533 | 65 | 288 | 1.0 | 5.0 | 0.00 | 0.00 | 0.00 | 48 | 1010.8 |
| 20260905203034 | 64 | 325 | 1.0 | 5.0 | 0.00 | 0.00 | 0.00 | 57 | 1010.9 |
| 20260905201534 | 63 | 309 | 1.0 | 5.0 | 0.00 | 0.00 | 0.00 | 60 | 1010.9 |
| 20260905200035 | 61 | 360 | 0.0 | 2.0 | 0.00 | 0.00 | 0.00 | 63 | 1011.2 |
| 20260905194524 | 62 | 329 | 2.0 | 6.0 | 0.00 | 0.00 | 0.00 | 64 | 1011.3 |
| 20260905193024 | 62 | 360 | 2.0 | 9.0 | 0.00 | 0.00 | 0.00 | 57 | 1011.4 |
| 20260905191522 | 61 | 360 | 5.0 | 13.0 | 0.00 | 0.00 | 0.00 | 55 | 1011.7 |
| 20260905190022 | 61 | 360 | 5.0 | 11.0 | 0.00 | 0.00 | 0.00 | 55 | 1012.0 |
| 20260905184526 | 62 | 228 | 1.0 | 9.0 | 0.00 | 0.00 | 0.00 | 57 | 1012.0 |
| 20260905183017 | 60 | 168 | 2.0 | 7.0 | 0.00 | 0.00 | 0.00 | 66 | 1012.1 |
| 20260905181514 | 59 | 171 | 1.0 | 3.0 | 0.00 | 0.00 | 0.00 | 69 | 1012.4 |
| 20260905180010 | 58 | 219 | 0.0 | 4.0 | 0.00 | 0.00 | 0.00 | 74 | 1012.6 |
| 20260905174508 | 56 | 355 | 0.0 | 3.0 | 0.00 | 0.00 | 0.00 | 79 | 1012.8 |
| 20260905173007 | 54 | 151 | 0.0 | 5.0 | 0.00 | 0.00 | 0.00 | 81 | 1013.0 |
| 20260905171607 | 54 | 161 | 0.0 | 1.0 | 0.00 | 0.00 | 0.00 | 84 | 1013.0 |
| 20260905170059 | 51 | 163 | 0.0 | 4.0 | 0.00 | 0.00 | 0.00 | 87 | 1013.2 |
| 20260905164552 | 49 | 360 | 0.0 | 5.0 | 0.00 | 0.00 | 0.00 | 94 | 1013.3 |
| 20260905163048 | 48 | 169 | 1.0 | 3.0 | 0.00 | 0.00 | 0.00 | 93 | 1013.3 |
| 20260905161546 | 47 | 20 | 1.0 | 2.0 | 0.00 | 0.00 | 0.00 | 97 | 1013.3 |
| 20260905160049 | 45 | 163 | 0.0 | 0.0 | 0.00 | 0.00 | 0.00 | 96 | 1013.3 |
| 20260905154552 | 45 | 160 | 0.0 | 2.0 | 0.00 | 0.00 | 0.00 | 96 | 1013.3 |
| 20260905153042 | 45 | 159 | 0.0 | 1.0 | 0.00 | 0.00 | 0.00 | 96 | 1013.6 |
| 20260905151542 | 45 | 159 | 0.0 | 3.0 | 0.00 | 0.00 | 0.00 | 96 | 1013.8 |
| 20260905150040 | 44 | 157 | 0.0 | 1.0 | 0.00 | 0.00 | 0.00 | 97 | 1014.0 |
| 20260905144549 | 44 | 156 | 0.0 | 1.0 | 0.00 | 0.00 | 0.00 | 97 | 1014.2 |
| 20260905143039 | 44 | 156 | 1.0 | 3.0 | 0.00 | 0.00 | 0.00 | 97 | 1014.2 |
| 20260905141538 | 44 | 157 | 0.0 | 1.0 | 0.00 | 0.00 | 0.00 | 97 | 1013.7 |
| 20260905140040 | 44 | 148 | 1.0 | 2.0 | 0.00 | 0.00 | 0.00 | 97 | 1014.1 |
| 20260905134543 | 43 | 148 | 0.0 | 0.0 | 0.00 | 0.00 | 0.00 | 97 | 1014.0 |
| 20260905133035 | 43 | 148 | 0.0 | 1.0 | 0.00 | 0.00 | 0.00 | 97 | 1013.9 |
| 20260905131535 | 43 | 148 | 0.0 | 1.0 | 0.00 | 0.00 | 0.00 | 97 | 1013.5 |
| 20260905130033 | 43 | 148 | 0.0 | 1.0 | 0.00 | 0.00 | 0.00 | 97 | 1013.6 |
| 20260905124543 | 43 | 148 | 0.0 | 1.0 | 0.00 | 0.00 | 0.00 | 97 | 1013.2 |
| 20260905123034 | 43 | 148 | 0.0 | 0.0 | 0.00 | 0.00 | 0.00 | 97 | 1013.6 |
| 20260905121532 | 43 | 148 | 0.0 | 4.0 | 0.00 | 0.00 | 0.00 | 97 | 1013.2 |
| 20260905120033 | 43 | 151 | 0.0 | 2.0 | 0.00 | 0.00 | 0.00 | 97 | 1012.9 |
| 20260905114531 | 43 | 151 | 0.0 | 1.0 | 0.00 | 0.00 | 0.00 | 97 | 1013.7 |
| 20260905113030 | 43 | 151 | 0.0 | 1.0 | 0.00 | 0.00 | 0.00 | 97 | 1013.1 |
| 20260905111529 | 43 | 151 | 0.0 | 1.0 | 0.00 | 0.00 | 0.00 | 97 | 1013.4 |
| 20260905110028 | 43 | 151 | 0.0 | 0.0 | 0.00 | 0.00 | 0.00 | 96 | 1012.9 |
| 20260905104535 | 43 | 152 | 0.0 | 1.0 | 0.00 | 0.01 | 0.00 | 96 | 1012.5 |
| 20260905103032 | 42 | 152 | 0.0 | 0.0 | 0.00 | 0.01 | 0.00 | 96 | 1012.3 |
| 20260905101526 | 43 | 151 | 0.0 | 1.0 | 0.00 | 0.01 | 0.00 | 96 | 1012.4 |
| 20260905100024 | 43 | 146 | 0.0 | 1.0 | 0.00 | 0.01 | 0.00 | 96 | 1012.3 |
| 20260905094523 | 43 | 146 | 0.0 | 2.0 | 0.00 | 0.01 | 0.00 | 95 | 1012.5 |
| 20260905093021 | 44 | 158 | 3.0 | 6.0 | 0.00 | 0.01 | 0.00 | 95 | 1013.1 |
| 20260905091519 | 44 | 344 | 0.0 | 5.0 | 0.00 | 0.01 | 0.00 | 95 | 1011.2 |
| 20260905090021 | 44 | 140 | 0.0 | 1.0 | 0.00 | 0.01 | 0.00 | 96 | 1011.6 |
| 20260905084522 | 44 | 140 | 0.0 | 1.0 | 0.00 | 0.01 | 0.00 | 96 | 1011.9 |
| 20260905083018 | 44 | 140 | 0.0 | 2.0 | 0.00 | 0.01 | 0.00 | 96 | 1011.4 |
| 20260905081517 | 44 | 130 | 0.0 | 1.0 | 0.00 | 0.01 | 0.00 | 96 | 1011.3 |
| 20260905080032 | 44 | 130 | 0.0 | 1.0 | 0.00 | 0.01 | 0.00 | 96 | 1011.3 |
| 20260905074516 | 44 | 15 | 0.0 | 2.0 | 0.00 | 0.01 | 0.00 | 96 | 1011.6 |
| 20260905073029 | 44 | 26 | 0.0 | 1.0 | 0.00 | 0.01 | 0.00 | 95 | 1011.4 |
| 20260905071515 | 44 | 26 | 0.0 | 1.0 | 0.00 | 0.01 | 0.00 | 95 | 1010.7 |
| 20260905070011 | 44 | 29 | 0.0 | 1.0 | 0.00 | 0.01 | 0.00 | 95 | 1011.1 |
| 20260905064513 | 44 | 29 | 0.0 | 1.0 | 0.00 | 0.01 | 0.00 | 95 | 1010.8 |
| 20260905063009 | 44 | 29 | 0.0 | 1.0 | 0.00 | 0.01 | 0.00 | 94 | 1010.4 |
| 20260905061507 | 45 | 9 | 0.0 | 1.0 | 0.00 | 0.01 | 0.00 | 95 | 1010.9 |
| 20260905060004 | 45 | 9 | 0.0 | 2.0 | 0.00 | 0.01 | 0.01 | 95 | 1010.5 |
| 20260905054505 | 45 | 159 | 0.0 | 1.0 | 0.00 | 0.01 | 0.01 | 94 | 1011.1 |
| 20260905053003 | 45 | 159 | 0.0 | 3.0 | 0.00 | 0.01 | 0.01 | 94 | 1010.8 |
| 20260905051502 | 45 | 173 | 0.0 | 0.0 | 0.00 | 0.01 | 0.01 | 94 | 1010.2 |
| 20260905050001 | 45 | 173 | 0.0 | 2.0 | 0.00 | 0.01 | 0.01 | 93 | 1010.4 |
| 20260905044503 | 45 | 173 | 0.0 | 2.0 | 0.00 | 0.01 | 0.01 | 93 | 1010.3 |
| 20260905043123 | 45 | 173 | 0.0 | 1.0 | 0.00 | 0.01 | 0.01 | 93 | 1010.6 |